EST,Max TemperatureF,Mean TemperatureF,Min TemperatureF,Max Dew PointF,MeanDew PointF,Min DewpointF,Max Humidity, Mean Humidity, Min Humidity, Max Sea Level PressureIn, Mean Sea Level PressureIn, Min Sea Level PressureIn, Max VisibilityMiles, Mean VisibilityMiles, Min VisibilityMiles, Max Wind SpeedMPH, Mean Wind SpeedMPH, Max Gust SpeedMPH,PrecipitationIn, CloudCover, Events, WindDirDegrees
2014-1-1,30,24,18,16,9,4,66,53,43,30.40,30.34,30.26,10,10,10,12,4,17,0.00,3,,262
2014-1-2,26,19,12,18,13,5,80,76,69,30.27,30.05,29.72,10,4,0,16,9,24,0.06,8,Snow,49
2014-1-3,12,8,0,5,-3,-13,79,64,46,30.46,29.97,29.68,10,4,1,17,10,28,0.04,4,Snow,342
2014-1-4,24,9,-6,5,-4,-12,80,61,32,30.54,30.42,30.32,10,10,9,13,2,20,0.00,0,,229
2014-1-5,42,20,1,41,18,-3,96,82,61,30.34,30.18,29.81,10,4,0,7,2,,0.05,6,Fog,57
2014-1-6,57,42,23,54,42,5,100,85,44,29.75,29.53,29.40,10,4,0,21,10,39,0.60,8,Fog-Rain-Snow,211
2014-1-7,18,10,3,0,-13,-16,50,40,31,30.34,30.08,29.68,10,10,10,18,13,31,0.00,0,,270
2014-1-8,19,12,5,2,-4,-10,55,49,38,30.52,30.46,30.35,10,10,10,10,6,,0.00,0,,254
2014-1-9,30,21,12,9,6,2,77,58,36,30.66,30.59,30.48,10,10,9,7,3,,0.00,1,,272
2014-1-10,34,25,16,31,24,10,92,84,74,30.59,30.43,30.24,9,2,0,5,0,,0.09,8,Fog-Rain-Snow,10
2014-1-11,57,45,33,54,47,30,96,90,82,30.22,29.73,29.33,10,4,0,17,7,36,0.67,8,Fog-Rain,176
2014-1-12,51,40,30,46,27,22,83,56,47,30.06,29.74,29.39,10,10,10,18,9,31,0.00,5,,277
2014-1-13,46,36,25,34,29,21,85,67,52,30.15,30.05,29.90,10,10,6,10,4,,0.00,0,,186
2014-1-14,46,42,34,43,39,32,93,86,68,29.89,29.78,29.68,10,5,0,9,3,,0.44,7,Fog-Rain,210
2014-1-15,46,35,24,37,28,21,100,85,54,30.01,29.93,29.84,10,3,0,8,1,,0.00,4,Fog,186
2014-1-16,37,32,26,35,30,22,93,82,70,29.95,29.90,29.86,10,7,1,7,2,,0.00,8,,297
2014-1-17,41,30,19,27,23,16,89,75,51,29.99,29.95,29.91,10,8,6,12,2,16,0.00,1,,192
2014-1-18,34,30,25,30,27,18,89,82,64,29.88,29.73,29.65,10,4,0,8,2,17,0.22,7,Fog-Rain-Snow,296
2014-1-19,33,28,23,20,17,15,74,65,59,29.81,29.72,29.63,10,10,4,15,7,22,0.00,4,Snow,234
2014-1-20,39,34,28,27,20,8,67,56,43,29.90,29.67,29.58,10,10,9,14,10,24,0.00,6,,256
2014-1-21,26,17,8,8,4,-2,79,68,44,30.04,29.95,29.87,10,4,0,16,9,23,0.02,6,Snow,9
2014-1-22,10,5,0,-4,-9,-13,58,52,42,29.99,29.86,29.79,10,10,7,14,9,25,0.00,2,Snow,330
2014-1-23,18,10,1,-3,-6,-10,63,51,37,30.25,30.13,29.99,10,10,9,13,4,21,0.00,1,,267
2014-1-24,16,11,6,-3,-6,-8,58,47,34,30.35,30.25,30.07,10,10,10,12,8,18,0.00,0,,248
2014-1-25,25,20,16,18,11,-2,86,68,43,30.03,29.56,29.42,10,6,0,14,9,23,0.02,4,Snow,218
2014-1-26,21,16,12,12,3,-6,78,56,37,29.88,29.78,29.46,10,10,4,16,9,22,0.00,4,,251
2014-1-27,39,29,18,25,11,-7,78,52,27,30.07,29.78,29.61,10,10,8,15,5,29,0.00,4,,273
2014-1-28,15,12,8,-6,-9,-11,50,38,32,30.35,30.27,30.10,10,10,10,14,8,26,0.00,2,,283
2014-1-29,21,14,7,5,-2,-9,79,54,25,30.28,30.16,30.06,10,7,2,12,3,18,0.00,4,Snow,255
2014-1-30,27,14,1,9,0,-6,76,51,33,30.46,30.35,30.21,10,10,9,9,4,16,0.00,0,,192
2014-1-31,37,29,21,20,12,5,72,50,34,30.25,30.14,30.09,10,10,10,12,5,16,0.00,4,,245